[[{"header":{"parameterUnit":"m.s-1","parameterCategory":2,"la1":30.2992,"la2":30.254,"lo1":-89.0895,"lo2":-89.0443,"dy":0.0025,"dx":0.0025,"nx":19,"ny":19,"refTime":"2026-03-09T09:00:00:Z","depth":"0","parameterNumber":2,"parameterNumberName":"U-component_of_CURRENTS"},"data":[0,0,0,0.1659,0.1659,0.1677,0.1677,0.1734,0.1734,0,0,0,0,0,0,0,0,0,0,0,0.1649,0.1649,0.1659,0.1659,0.1677,0.1677,0.1734,0.1734,0,0,0,0,0,0,0,0,0,0,0,0.1649,0.1649,0.1649,0.1659,0.1677,0.1677,0.1733,0.1712,0,0,0,0,0,0,0,0,0,0,0.1691,0.1688,0.1649,0.1649,0.1659,0.1677,0.1677,0.1711,0.1714,0.1735,0,0.1732,0,0.1736,0.1739,0.1739,0,0,0,0.1662,0.1686,0.1679,0.1649,0.166,0.1677,0.167,0.1712,0.1715,0.1739,0.1733,0.1735,0.1737,0.1739,0.1739,0.1819,0.1819,0,0,0.1661,0.1666,0.1677,0.1681,0.1658,0.1669,0.167,0.1714,0.1722,0.1733,0.1736,0.1738,0.174,0.174,0.1818,0.1819,0,0,0,0.1656,0.1666,0.1657,0.1678,0.168,0.1669,0.1671,0.172,0.1714,0.1737,0.1739,0.174,0.1741,0.1818,0.1819,0.1987,0,0,0,0.1656,0.1663,0.1657,0.1663,0.1679,0.1699,0.1677,0.1711,0.1716,0.1739,0.174,0.1741,0.1818,0.1818,0.1982,0.2014,0,0,0,0.1649,0.1663,0.166,0.1662,0.1668,0.1698,0.1695,0.1712,0.1718,0.1739,0.1742,0.1817,0.1818,0.1977,0.2007,0.2046,0,0,0,0.1661,0.1728,0.166,0.1727,0.1668,0.1711,0.1695,0.1709,0.1725,0.174,0.1818,0.1819,0.1975,0.2002,0.2042,0.1928,0.194,0,0,0.1768,0.1741,0.178,0.1721,0.1784,0.1709,0.1813,0.1805,0.1751,0.1805,0.1807,0.1983,0.2006,0.2045,0.198,0.199,0,0,0,0.183,0.1846,0.1852,0.1863,0.1856,0.1882,0.1863,0.1868,0.1901,0.1765,0.1954,0.1961,0.1982,0.1903,0.1911,0.1809,0.1823,0.1823,0.1823,0.1986,0.1962,0.201,0.1986,0.2008,0.2005,0.2041,0.2038,0.1993,0.2018,0.208,0.2191,0.211,0.2115,0.2013,0.2077,0.2078,0.2078,0.2079,0.2106,0.2107,0.2089,0.2121,0.2125,0.2184,0.2234,0.2222,0.2285,0.2209,0.2222,0.2059,0.2133,0.2021,0.2089,0.2087,0.2086,0.2085,0.2084,0.2147,0.2143,0.2147,0.2171,0.2224,0.2257,0.2318,0.2367,0.2387,0.2432,0.2275,0.227,0.2183,0.2427,0.2427,0.2428,0.2428,0.2428,0.2429,0.2169,0.2176,0.2179,0.2202,0.2214,0.2259,0.2345,0.2388,0.2418,0.2404,0.2402,0.219,0.2295,0.2295,0.2434,0.2433,0.2432,0.2432,0.2432,0.2202,0.2181,0.2179,0.2181,0.2188,0.2159,0.2275,0.2317,0.2384,0.2382,0.2235,0.238,0.2296,0.2285,0.2282,0.2409,0.2409,0.2409,0.2409,0.2211,0.2204,0.216,0.2132,0.2121,0.2108,0.2058,0.2102,0.2151,0.2121,0.2174,0.2078,0.2084,0.1982,0.1978,0.1965,0.201,0.2009,0.2009,0.2235,0.2201,0.2156,0.209,0.2063,0.2006,0.1873,0.1787,0.1871,0.1988,0.2067,0.2084,0.194,0.1955,0.1785,0.1788,0.1762,0,0]},{"header":{"parameterUnit":"m.s-1","parameterCategory":2,"la1":30.2992,"la2":30.254,"lo1":-89.0895,"lo2":-89.0443,"dy":0.0025,"dx":0.0025,"nx":19,"ny":19,"refTime":"2026-03-09T09:00:00:Z","depth":"0","parameterNumber":3,"parameterNumberName":"V-component_of_CURRENTS"},"data":[0,0,0,0.0404,0.0404,0.0395,0.0395,0.0354,0.0354,0,0,0,0,0,0,0,0,0,0,0,0.0407,0.0407,0.0404,0.0404,0.0395,0.0395,0.0354,0.0354,0,0,0,0,0,0,0,0,0,0,0,0.0407,0.0407,0.0407,0.0404,0.0395,0.0395,0.0355,0.0367,0,0,0,0,0,0,0,0,0,0,0.0378,0.0389,0.0407,0.0407,0.0404,0.0395,0.0395,0.0367,0.0366,0.0353,0,0.0358,0,0.0358,0.0351,0.0351,0,0,0,0.0396,0.039,0.0388,0.0407,0.0404,0.0395,0.0397,0.0367,0.0365,0.0351,0.0357,0.0356,0.0357,0.0351,0.0351,0.0382,0.0383,0,0,0.0397,0.0402,0.039,0.0388,0.0409,0.0397,0.0397,0.0366,0.0366,0.0357,0.0355,0.0357,0.0351,0.0351,0.0382,0.0383,0,0,0,0.0404,0.0402,0.0401,0.0389,0.0391,0.0397,0.0397,0.0367,0.0368,0.0355,0.0356,0.0351,0.035,0.0381,0.0382,0.0506,0,0,0,0.0403,0.0407,0.0402,0.0404,0.0392,0.0384,0.0399,0.037,0.0366,0.0356,0.0351,0.035,0.038,0.0382,0.0501,0.0581,0,0,0,0.0406,0.0407,0.0408,0.0404,0.0404,0.0384,0.0383,0.0369,0.0368,0.0351,0.035,0.038,0.0381,0.0497,0.0573,0.061,0,0,0,0.0407,0.0445,0.0409,0.045,0.0404,0.044,0.0383,0.0391,0.0383,0.035,0.0381,0.0382,0.0495,0.0568,0.0605,0.0605,0.0627,0,0,0.0463,0.0451,0.0478,0.0447,0.0504,0.044,0.0509,0.0463,0.0401,0.0385,0.0386,0.0502,0.0572,0.0609,0.0693,0.0713,0,0,0,0.0502,0.0527,0.0534,0.0557,0.0554,0.0586,0.0537,0.0519,0.0503,0.0405,0.0499,0.0539,0.0558,0.0547,0.0564,0.048,0.0389,0.0389,0.0389,0.059,0.0596,0.0653,0.0668,0.0688,0.0685,0.0704,0.0671,0.0587,0.0598,0.0636,0.0748,0.0739,0.0751,0.0666,0.0617,0.0617,0.0617,0.0618,0.0691,0.0721,0.0746,0.0802,0.0824,0.0871,0.0875,0.0835,0.0843,0.0754,0.0764,0.0675,0.0776,0.0678,0.0626,0.0624,0.0623,0.0622,0.0622,0.073,0.0749,0.0787,0.0869,0.0952,0.0977,0.1059,0.1032,0.0968,0.0996,0.0921,0.0918,0.0832,0.0973,0.0973,0.0974,0.0974,0.0975,0.0975,0.0741,0.0787,0.0845,0.0929,0.0991,0.1081,0.1151,0.1173,0.1144,0.1076,0.1074,0.0869,0.0856,0.0843,0.0984,0.0982,0.0981,0.098,0.098,0.0791,0.0787,0.0879,0.0941,0.1085,0.1197,0.126,0.1314,0.1303,0.129,0.1049,0.1096,0.1053,0.1037,0.1028,0.1208,0.1208,0.1208,0.1208,0.0804,0.0812,0.0924,0.1023,0.115,0.1255,0.1386,0.1407,0.127,0.1156,0.1097,0.1004,0.0999,0.0945,0.0932,0.0916,0.1065,0.1064,0.1064,0.0847,0.0867,0.0951,0.1035,0.1185,0.1324,0.1442,0.1445,0.1195,0.1048,0.0988,0.0995,0.0844,0.0841,0.0738,0.0726,0.0692,0,0]}],[{"header":{"parameterUnit":"m.s-1","parameterCategory":2,"la1":30.2992,"la2":30.254,"lo1":-89.0895,"lo2":-89.0443,"dy":0.0025,"dx":0.0025,"nx":19,"ny":19,"refTime":"2026-03-09T09:00:00:Z","depth":"2","parameterNumber":2,"parameterNumberName":"U-component_of_CURRENTS"},"data":[0,0,0,0.1576,0.1576,0.1605,0.1605,0.1669,0.1669,0,0,0,0,0,0,0,0,0,0,0,0.1562,0.1563,0.1576,0.1576,0.1605,0.1605,0.1668,0.1669,0,0,0,0,0,0,0,0,0,0,0,0.1562,0.1562,0.1563,0.1576,0.1605,0.1605,0.1668,0.1641,0,0,0,0,0,0,0,0,0,0,0.1609,0.1599,0.1562,0.1563,0.1577,0.1605,0.1605,0.1639,0.1642,0.1662,0,0.1662,0,0.1669,0.1674,0.1674,0,0,0,0.1579,0.1597,0.1598,0.1563,0.1577,0.1605,0.1593,0.1641,0.1644,0.1667,0.1663,0.1666,0.167,0.1674,0.1675,0.1751,0.1751,0,0,0.1577,0.1577,0.1595,0.16,0.158,0.1592,0.1594,0.1643,0.1649,0.1664,0.1667,0.1671,0.1675,0.1675,0.175,0.1751,0,0,0,0.1571,0.1576,0.1575,0.1597,0.1601,0.1593,0.1595,0.1647,0.1645,0.1668,0.1672,0.1675,0.1676,0.175,0.1751,0.1874,0,0,0,0.157,0.1572,0.1574,0.1576,0.16,0.1623,0.1598,0.1641,0.1647,0.1671,0.1675,0.1677,0.175,0.175,0.187,0.1903,0,0,0,0.1562,0.1571,0.1571,0.1575,0.1587,0.1622,0.1623,0.1643,0.165,0.1674,0.1677,0.1749,0.175,0.1867,0.1897,0.1932,0,0,0,0.1565,0.1601,0.1571,0.1615,0.1586,0.1626,0.1623,0.1644,0.1662,0.1675,0.175,0.175,0.1865,0.1893,0.1928,0.1794,0.1799,0,0,0.162,0.1607,0.1634,0.1609,0.1665,0.1623,0.1705,0.1713,0.1684,0.1735,0.1737,0.1872,0.1896,0.1931,0.1837,0.1842,0,0,0,0.1659,0.1673,0.1682,0.1708,0.1715,0.1746,0.1748,0.176,0.1802,0.1699,0.1852,0.1862,0.1881,0.1792,0.1796,0.1754,0.1754,0.1754,0.1754,0.1757,0.1754,0.1793,0.1793,0.1821,0.184,0.1876,0.189,0.1866,0.1893,0.1951,0.204,0.1946,0.1947,0.1945,0.1945,0.1946,0.1946,0.1946,0.1839,0.1847,0.186,0.1888,0.1912,0.197,0.2029,0.2029,0.2099,0.2046,0.2059,0.191,0.1958,0.1956,0.1954,0.1953,0.1952,0.1951,0.1951,0.1869,0.1866,0.1878,0.1926,0.1984,0.2032,0.211,0.2159,0.2185,0.2223,0.2079,0.2075,0.2108,0.2224,0.2224,0.2225,0.2225,0.2225,0.2225,0.1881,0.1891,0.1898,0.1944,0.1969,0.2045,0.2143,0.2185,0.2196,0.2177,0.2175,0.2132,0.2123,0.2122,0.223,0.2229,0.2229,0.2228,0.2228,0.187,0.1869,0.1893,0.1901,0.1955,0.1935,0.2062,0.2085,0.2142,0.2117,0.214,0.214,0.2076,0.2069,0.2064,0.2152,0.2152,0.2152,0.2152,0.1855,0.1857,0.1865,0.1864,0.1884,0.1881,0.1806,0.1816,0.1906,0.1921,0.1931,0.184,0.1848,0.1765,0.1765,0.1751,0.1758,0.1757,0.1757,0.1835,0.1848,0.1827,0.1827,0.1821,0.1774,0.161,0.147,0.154,0.1742,0.1871,0.2124,0.2013,0.2017,0.1902,0.1898,0.1881,0,0]},{"header":{"parameterUnit":"m.s-1","parameterCategory":2,"la1":30.2992,"la2":30.254,"lo1":-89.0895,"lo2":-89.0443,"dy":0.0025,"dx":0.0025,"nx":19,"ny":19,"refTime":"2026-03-09T09:00:00:Z","depth":"2","parameterNumber":3,"parameterNumberName":"V-component_of_CURRENTS"},"data":[0,0,0,0.0266,0.0266,0.0267,0.0267,0.0233,0.0233,0,0,0,0,0,0,0,0,0,0,0,0.0263,0.0263,0.0266,0.0266,0.0267,0.0267,0.0233,0.0233,0,0,0,0,0,0,0,0,0,0,0,0.0263,0.0263,0.0263,0.0266,0.0267,0.0267,0.0233,0.0239,0,0,0,0,0,0,0,0,0,0,0.0241,0.0244,0.0263,0.0263,0.0266,0.0267,0.0267,0.0239,0.0239,0.0225,0,0.0231,0,0.0236,0.0231,0.023,0,0,0,0.0257,0.0245,0.0251,0.0263,0.0266,0.0267,0.0264,0.0239,0.0238,0.0224,0.0231,0.023,0.0235,0.023,0.023,0.0249,0.0249,0,0,0.0257,0.0255,0.0252,0.025,0.0274,0.0264,0.0264,0.0239,0.0237,0.0231,0.023,0.0234,0.023,0.023,0.0248,0.0249,0,0,0,0.0263,0.0255,0.0262,0.0251,0.0257,0.0264,0.0265,0.0238,0.0242,0.0229,0.0234,0.023,0.0229,0.0248,0.0249,0.0315,0,0,0,0.0262,0.026,0.0262,0.026,0.0258,0.0252,0.0264,0.0243,0.0241,0.0234,0.023,0.0229,0.0247,0.0248,0.0312,0.0364,0,0,0,0.0262,0.0259,0.0263,0.026,0.0266,0.0253,0.0255,0.0243,0.0244,0.023,0.0229,0.0247,0.0248,0.0309,0.0359,0.0391,0,0,0,0.0254,0.026,0.0263,0.0279,0.0266,0.0292,0.0255,0.0263,0.0257,0.023,0.0248,0.0249,0.0309,0.0355,0.0388,0.0383,0.0397,0,0,0.0257,0.026,0.0273,0.0276,0.031,0.0291,0.0327,0.0298,0.0268,0.025,0.0251,0.0313,0.0358,0.0391,0.0446,0.0458,0,0,0,0.0272,0.0284,0.0294,0.0318,0.0333,0.0361,0.0339,0.0331,0.0323,0.0271,0.0317,0.0344,0.0362,0.0352,0.0362,0.0254,0.0254,0.0254,0.0253,0.0275,0.0299,0.0335,0.0369,0.039,0.0409,0.0425,0.0413,0.0368,0.0379,0.0399,0.0476,0.0466,0.0474,0.0388,0.0389,0.0389,0.0389,0.0389,0.0316,0.0349,0.0387,0.043,0.0465,0.05,0.0518,0.0501,0.0517,0.0467,0.048,0.0425,0.0488,0.0395,0.0394,0.0393,0.0392,0.0392,0.0392,0.0333,0.0355,0.0388,0.0471,0.0536,0.0574,0.066,0.0644,0.0597,0.0615,0.0583,0.0582,0.052,0.0613,0.0614,0.0614,0.0615,0.0615,0.0615,0.0341,0.0377,0.0431,0.0513,0.0578,0.0677,0.0745,0.0767,0.0734,0.0676,0.0675,0.0551,0.0544,0.0533,0.0621,0.062,0.0619,0.0619,0.0618,0.0341,0.0374,0.047,0.0532,0.0687,0.0794,0.0854,0.0886,0.0873,0.0846,0.0697,0.0693,0.0673,0.0663,0.0655,0.0769,0.0769,0.0769,0.0769,0.0346,0.0364,0.0512,0.0621,0.0756,0.0852,0.0949,0.0943,0.0864,0.0782,0.0781,0.0723,0.0716,0.0694,0.0684,0.0673,0.0794,0.0794,0.0794,0.0344,0.0414,0.0503,0.0637,0.0788,0.0911,0.0977,0.0948,0.0816,0.0794,0.078,0.0772,0.068,0.0672,0.0629,0.0617,0.0596,0,0]}],[{"header":{"parameterUnit":"m.s-1","parameterCategory":2,"la1":30.2992,"la2":30.254,"lo1":-89.0895,"lo2":-89.0443,"dy":0.0025,"dx":0.0025,"nx":19,"ny":19,"refTime":"2026-03-09T09:00:00:Z","depth":"4","parameterNumber":2,"parameterNumberName":"U-component_of_CURRENTS"},"data":[0,0,0,0.112,0.1122,0.1227,0.1228,0.1341,0.1342,0,0,0,0,0,0,0,0,0,0,0,0.1085,0.1086,0.112,0.1122,0.1227,0.1228,0.1341,0.1342,0,0,0,0,0,0,0,0,0,0,0,0.1085,0.1086,0.1087,0.1123,0.1227,0.1228,0.1341,0.1268,0,0,0,0,0,0,0,0,0,0,0.1169,0.1141,0.1086,0.1087,0.1123,0.1227,0.1228,0.1265,0.1272,0.1287,0,0.1305,0,0.1324,0.1349,0.1349,0,0,0,0.1126,0.1135,0.1159,0.1087,0.1124,0.1227,0.1181,0.1269,0.1278,0.1297,0.1307,0.1311,0.1326,0.135,0.135,0.1444,0.1444,0,0,0.1121,0.1109,0.1153,0.1165,0.1154,0.1178,0.1184,0.1275,0.1287,0.1307,0.1314,0.1328,0.135,0.1351,0.1444,0.1444,0,0,0,0.1101,0.1105,0.1128,0.116,0.118,0.1181,0.1188,0.1283,0.129,0.1315,0.1329,0.1351,0.1352,0.1443,0.1444,0.1466,0,0,0,0.1098,0.1093,0.1125,0.112,0.1178,0.1236,0.1194,0.1284,0.1294,0.1329,0.1351,0.1353,0.1443,0.1444,0.1465,0.1461,0,0,0,0.108,0.1091,0.1103,0.1118,0.1162,0.1235,0.1248,0.1287,0.1303,0.135,0.1353,0.1443,0.1444,0.1464,0.146,0.1489,0,0,0,0.1064,0.1074,0.1103,0.1127,0.1161,0.1218,0.1248,0.1301,0.134,0.1352,0.1443,0.1444,0.1463,0.1459,0.1488,0.1305,0,0,0,0.106,0.1073,0.1088,0.1116,0.1156,0.1204,0.1262,0.1326,0.1355,0.1412,0.1415,0.1465,0.146,0.1489,0.1345,0,0,0,0,0.1076,0.1084,0.1104,0.1139,0.1189,0.1244,0.1306,0.1346,0.1419,0.1381,0.1472,0.1468,0.1485,0.1376,0.1447,0.1447,0.1447,0.1447,0.1447,0.104,0.1073,0.11,0.1148,0.1191,0.1278,0.1332,0.1397,0.1429,0.1467,0.1492,0.1534,0.1419,0.1505,0.1505,0.1505,0.1505,0.1505,0.1505,0.1025,0.1035,0.1094,0.1137,0.1205,0.127,0.1372,0.1418,0.1512,0.1518,0.1535,0.1413,0.1508,0.1507,0.1507,0.1507,0.1506,0.1506,0.1506,0.0992,0.0998,0.105,0.1111,0.1186,0.1276,0.135,0.1444,0.1522,0.1554,0.1456,0.1551,0.1543,0.158,0.158,0.158,0.1581,0.1581,0.1581,0.0929,0.0975,0.1005,0.1082,0.1128,0.1211,0.135,0.1405,0.1501,0.1453,0.1571,0.1559,0.1556,0.1548,0.1583,0.1582,0.1582,0.1582,0.1582,0.0858,0.0897,0.0924,0.0968,0.1056,0.1106,0.1252,0.1319,0.1366,0.1365,0.14,0.1408,0.1383,0.1386,0.137,0.1353,0.1351,0.1349,0,0.0794,0.082,0.0843,0.088,0.0921,0.1027,0.105,0.1137,0.1232,0.1188,0.1374,0.141,0.1416,0.1386,0.1384,0.1363,0,0,0,0.0731,0.0752,0.0743,0.0805,0.085,0.0924,0.1046,0.1041,0.1211,0.1208,0.1293,0.1308,0.147,0.1588,0.1571,0.1568,0.1553,0,0]},{"header":{"parameterUnit":"m.s-1","parameterCategory":2,"la1":30.2992,"la2":30.254,"lo1":-89.0895,"lo2":-89.0443,"dy":0.0025,"dx":0.0025,"nx":19,"ny":19,"refTime":"2026-03-09T09:00:00:Z","depth":"4","parameterNumber":3,"parameterNumberName":"V-component_of_CURRENTS"},"data":[0,0,0,0.0189,0.019,0.0204,0.0204,0.0187,0.0187,0,0,0,0,0,0,0,0,0,0,0,0.0182,0.0182,0.0189,0.019,0.0204,0.0204,0.0187,0.0187,0,0,0,0,0,0,0,0,0,0,0,0.0182,0.0182,0.0182,0.019,0.0204,0.0204,0.0187,0.0183,0,0,0,0,0,0,0,0,0,0,0.0173,0.017,0.0182,0.0182,0.019,0.0204,0.0204,0.0183,0.0183,0.0173,0,0.0181,0,0.0188,0.0186,0.0186,0,0,0,0.0182,0.017,0.018,0.0182,0.019,0.0204,0.0195,0.0184,0.0184,0.0173,0.0181,0.0181,0.0187,0.0186,0.0186,0.0197,0.0197,0,0,0.0181,0.0176,0.018,0.018,0.02,0.0195,0.0196,0.0184,0.0182,0.0181,0.0181,0.0187,0.0186,0.0186,0.0197,0.0197,0,0,0,0.0184,0.0175,0.0186,0.0181,0.0188,0.0195,0.0196,0.0182,0.0188,0.018,0.0187,0.0186,0.0185,0.0196,0.0197,0.0201,0,0,0,0.0183,0.0178,0.0186,0.0182,0.0189,0.019,0.0195,0.0189,0.0188,0.0187,0.0186,0.0185,0.0196,0.0196,0.02,0.0213,0,0,0,0.018,0.0177,0.0183,0.0182,0.0193,0.019,0.0195,0.0189,0.0192,0.0186,0.0185,0.0196,0.0196,0.0199,0.0211,0.0233,0,0,0,0.0169,0.0163,0.0182,0.0184,0.0193,0.0211,0.0195,0.0206,0.0204,0.0185,0.0196,0.0197,0.0199,0.021,0.0232,0.0248,0,0,0,0.0151,0.0161,0.0163,0.0181,0.0192,0.0208,0.0217,0.021,0.0208,0.0195,0.0196,0.02,0.0211,0.0232,0.0284,0,0,0,0,0.0151,0.0154,0.0162,0.0177,0.0198,0.0218,0.022,0.0222,0.0219,0.0211,0.0211,0.0219,0.0232,0.0239,0.02,0.0199,0.0199,0.0199,0.0199,0.0109,0.0133,0.0147,0.0179,0.0195,0.0224,0.0234,0.0238,0.023,0.0236,0.023,0.0261,0.0269,0.0233,0.0233,0.0233,0.0233,0.0233,0.0233,0.0103,0.0128,0.0153,0.0176,0.0208,0.0227,0.0245,0.0247,0.0257,0.0246,0.0258,0.0252,0.0234,0.0234,0.0233,0.0233,0.0233,0.0233,0.0233,0.0104,0.0122,0.014,0.0187,0.0221,0.0251,0.0299,0.0292,0.0274,0.0281,0.0305,0.0275,0.0266,0.0294,0.0294,0.0294,0.0294,0.0294,0.0294,0.0109,0.0128,0.0164,0.021,0.0252,0.0305,0.0341,0.0353,0.0333,0.0326,0.0296,0.0282,0.028,0.0271,0.0297,0.0296,0.0296,0.0296,0.0295,0.0128,0.0141,0.0195,0.0238,0.0329,0.0374,0.0404,0.0414,0.0424,0.0407,0.0349,0.0346,0.0351,0.0347,0.034,0.0388,0.0388,0.0389,0,0.0143,0.0152,0.0228,0.0298,0.0379,0.0414,0.0461,0.0466,0.042,0.0409,0.0406,0.034,0.0337,0.0342,0.0339,0.0331,0,0,0,0.0161,0.0183,0.0238,0.0306,0.0399,0.0442,0.0472,0.0468,0.0427,0.0438,0.0397,0.0395,0.0359,0.0304,0.0304,0.0301,0.0287,0,0]}]]